{"data":{"norad_id":60543,"intl_designator":"2024-149CD","name":"ARCTIC WEATHER SATELLITE","alt_names":[],"object_type":"PAYLOAD","status":"ACTIVE","operator":null,"country":"NOR","launch_date":"2024-08-16","launch_site_code":"AFWTR","launch_vehicle":null,"mission":null,"orbit_class":"UNKNOWN","rcs_meters":null,"size_class":null,"mass_kg":null,"dimensions":null,"purposes":[],"wikipedia_slug":null,"has_3d_model":false,"image_url":null,"decayed_at":null,"tle_current":{"epoch":"2026-09-22T03:20:32.353440Z","epoch_age_seconds":147528,"freshness":"FRESH","line1":"1 60543U 24149CD  26265.13926335  .00000494  00000+0  57053-4 0  9991","line2":"2 60543  97.6706 332.7863 0003354 124.8129 235.3405 14.89801360113736","mean_motion":14.8980136,"eccentricity":0.0003354,"inclination_deg":97.6706,"raan_deg":332.7863,"arg_perigee_deg":124.8129,"mean_anomaly_deg":235.3405,"bstar":5.7053e-5,"rev_number":11373,"period_min":96.65718119629,"perigee_km":596.21576352407,"apogee_km":600.89572901827,"semimajor_km":6976.6927462712,"source":"CELESTRAK","updated_at":"2026-09-23T09:00:20.671976Z"}}}